This is the latest recevied weather packets stored in our database for station/object OK1TBM-13. If no packets are shown the sender has not sent any weather packets the latest 10 day(s).
| Time | Temp. | Humidity | Pressure | Rain* | Wind** | Luminosity | Snow |
|---|---|---|---|---|---|---|---|
| 1788016801 | 25° C | 45% | 1014.2 hPa | 0 mm | - | 259 W/m² | - |
| 1788016207 | 25° C | 46% | 1014.6 hPa | 0 mm | - | 275 W/m² | - |
| 1788015909 | 25° C | 45% | 1014.6 hPa | 0 mm | - | 319 W/m² | - |
| 1788015601 | 24.44° C | 46% | 1014.6 hPa | 0 mm | - | 333 W/m² | - |
| 1788015300 | 24.44° C | 46% | 1014.6 hPa | 0 mm | - | 351 W/m² | - |
| 1788015009 | 25° C | 45% | 1014.6 hPa | 0 mm | - | 372 W/m² | - |
| 1788014700 | 25° C | 46% | 1014.6 hPa | 0 mm | - | 393 W/m² | - |
| 1788014400 | 24.44° C | 45% | 1014.6 hPa | 0 mm | - | 427 W/m² | - |
| 1788014101 | 23.89° C | 47% | 1014.6 hPa | 0 mm | - | 187 W/m² | - |
| 1788013801 | 24.44° C | 46% | 1014.6 hPa | 0 mm | - | 181 W/m² | - |
| 1788013501 | 24.44° C | 47% | 1014.2 hPa | 0 mm | - | 313 W/m² | - |
| 1788012902 | 24.44° C | 50% | 1014.6 hPa | 0 mm | - | 334 W/m² | - |
| 1788012602 | 24.44° C | 49% | 1014.6 hPa | 0 mm | - | 272 W/m² | - |
| 1788012301 | 24.44° C | 46% | 1014.6 hPa | 0 mm | - | 440 W/m² | - |
| 1788012001 | 25.56° C | 45% | 1014.2 hPa | 0 mm | - | 499 W/m² | - |
| 1788011701 | 26.11° C | 46% | 1014.2 hPa | 0 mm | - | 568 W/m² | - |
| 1788011408 | 25.56° C | 47% | 1014.6 hPa | 0 mm | - | 549 W/m² | - |
| 1788011102 | 25.56° C | 45% | 1014.6 hPa | 0 mm | - | 586 W/m² | - |
| 1788010803 | 25.56° C | 46% | 1014.6 hPa | 0 mm | - | 622 W/m² | - |
| 1788010501 | 25.56° C | 44% | 1014.6 hPa | 0 mm | - | 650 W/m² | - |
| 1788010215 | 25.56° C | 45% | 1014.6 hPa | 0 mm | - | 578 W/m² | - |
| 1788009901 | 25.56° C | 44% | 1014.6 hPa | 0 mm | - | 662 W/m² | - |
| 1788009603 | 24.44° C | 48% | 1014.6 hPa | 0 mm | - | 679 W/m² | - |
| 1788009301 | 25° C | 51% | 1014.6 hPa | 0 mm | - | 673 W/m² | - |
| 1788009001 | 25° C | 50% | 1014.6 hPa | 0 mm | - | 548 W/m² | - |
* Rain latest hour (hover to see other rain measurements)
** Current wind speed in m/s (hover to see current wind gust speed)